Flag for Germany Weather past 2 weeks in Bayreuth, Bavaria, Germany

Now
54 °F

Broken clouds.


Feels Like: 52 °F
Forecast: 45 / 67 °F
Wind: 6 mph from North

Location: Grafenwoehr


UV Index: 3 (Moderate)

Visibility: N/A


Pressure: 29.95 "Hg

Humidity: 82%

Dew point: 48 °F

Location of BayreuthLocation

Historic Weather in Bayreuth

°F

Bayreuth temperature yesterday

Maximum temperature yesterday: 46 °F (at 4:58 PM)
Minimum temperature yesterday: 30 °F (at 1:58 AM)
Average temperature yesterday: 37 °F

Past Weeks' High & Low Weather Summary

 TemperatureHumidityPressure
High72 °F (Apr 4, 12:58 PM)100% (Apr 5, 6:58 AM)30.43 "Hg (Apr 5, 6:58 AM)
Low23 °F (Apr 17, 5:58 AM)23% (Apr 17, 3:58 PM)29.71 "Hg (Apr 4, 4:58 PM)
Average47 °F72%30.06 "Hg
* Reported Apr 4 11:58 AM — Apr 19 11:58 AM, Bayreuth, Weather by CustomWeather, © 2014

Note: Actual official high and low records may vary slightly from our data, if they occured in-between our weather recording intervals... More about our weather records

Advertising

Historic Weather Conditions — Data for Previous 24 hours

 ConditionsComfort  
Time TempWeatherWind HumidityBarometerVisibility
11:58 AM
Apr 19
54 °FBroken clouds.6 mph82%29.95 "HgN/A
10:58 AM52 °FSunny.7 mph94%29.95 "HgN/A
9:58 AM46 °FSunny.2 mph100%29.97 "HgN/A
8:58 AM38 °FSunny.No wind100%29.99 "HgN/A
7:58 AM33 °FSunny.No wind100%30.00 "HgN/A
6:58 AM29 °FClear.2 mph100%29.99 "HgN/A
5:58 AM28 °FPassing clouds.No wind100%29.98 "HgN/A
4:58 AM28 °FClear.No wind100%29.97 "HgN/A
3:58 AM30 °FClear.No wind100%29.98 "HgN/A
3:00 AM32 °FIce fog.2 mph100%29.92 "Hg1 mi
1:58 AM32 °FIce fog.No wind100%29.98 "Hg1 mi
12:58 AM30 °FIce fog.No wind100%29.99 "Hg1 mi
11:58 PM
Apr 18
32 °FIce fog.2 mph100%29.98 "Hg1 mi
10:58 PM36 °FClear.2 mph100%29.96 "HgN/A
10:03 PM36 °FFog.3 mph100%29.90 "Hg2 mi
9:58 PM37 °FPassing clouds.3 mph100%29.96 "HgN/A
8:58 PM39 °FOvercast.2 mph100%29.94 "HgN/A
7:58 PM40 °FMostly cloudy.2 mph99%29.92 "HgN/A
6:58 PM40 °FCloudy.2 mph98%29.91 "HgN/A
6:00 PM39 °FLight rain. Fog.5 mph93%29.85 "Hg2 mi
5:58 PM39 °FRain. Fog.5 mph93%29.90 "Hg3 mi
4:58 PM46 °FMore clouds than sun.1 mph62%29.87 "HgN/A
3:58 PM45 °FBroken clouds.3 mph76%29.88 "Hg5 mi
2:59 PM41 °FPartly sunny.1 mph93%29.83 "HgN/A
2:58 PM41 °FDrizzle. Mostly cloudy.1 mph93%29.89 "HgN/A
1:58 PM40 °FMostly cloudy.1 mph98%29.89 "HgN/A
12:58 PM40 °FLight rain. Overcast.2 mph100%29.89 "HgN/A
Weather by CustomWeather, © 2014

See weather overview